Regional Weather Roundup
Issued by NWS

Home | Current Version | Previous Version | Text Only | Print | Product List | Glossary On
Versions: 1 2 3 4 5 6 7 8 9 10 11 12 13 14 15 16 17 18 19 20 21 22 23 24 25 26 27 28 29 30 31 32 33 34 35 36 37 38 39 40 41 42 43 44 45 46 47 48 49 50
000
ASUS44 KMEG 290910
RWRTN
TENNESSEE HOURLY STATE WEATHER ROUNDUP
NATIONAL WEATHER SERVICE MEMPHIS TN
400 AM CDT THU JUN 29 2017

TNZ002-004-019-021-049-052-054-088>092-291000-
WEST TENNESSEE

CITY           SKY/WX    TMP DP  RH WIND       PRES   REMARKS
MEMPHIS INTL   PTCLDY    73  70  90 S9        29.99S
NWS MEMPHIS      N/A     73 N/A N/A MISG        N/A
JACKSON        PTCLDY    72  68  87 S5        30.01R
SOMERVILLE     CLEAR     72  68  88 VRB6      30.00S
COVINGTON      PTCLDY    72  68  88 S6        29.99S
UNION CITY     PTCLDY    70  66  88 S6        29.98S
BOLIVAR        PTCLDY    70  66  88 SE5       30.02R
HUNTINGDON     PTCLDY    72  66  83 S6        30.01S
LEXINGTON      CLEAR     68  66  94 SE5       30.03S
SELMER         CLEAR     72  68  88 S8        30.03S
SAVANNAH       CLEAR     73  68  83 S9        30.03S
$$

TNZ008-025-027-028-033-062-065-066-291000-
NORTH MIDDLE TENNESSEE

CITY           SKY/WX    TMP DP  RH WIND       PRES   REMARKS
NASHVILLE      CLOUDY    71  62  73 SE5       30.06S
PORTLAND       MOCLDY    68  63  83 S7        30.06S
CLARKSVILLE    PTCLDY    69  62  78 S3        30.03S
SMYRNA         CLOUDY    67  63  87 SE6       30.07S
COOKEVILLE     CLEAR     70  64  83 S7        30.10S
GALLATIN       CLOUDY    68  63  83 CALM      30.09R
CROSSVILLE     CLOUDY    69  61  75 VRB5      30.16S
$$

TNZ061-075-076-078-094-096-097-291000-
SOUTH MIDDLE TENNESSEE

CITY           SKY/WX    TMP DP  RH WIND       PRES   REMARKS
FAYETTEVILLE   CLOUDY    72  64  78 S8        30.09S
TULLAHOMA      CLEAR     70  61  73 E5        30.11S
WINCHESTER     CLEAR     72  63  73 SE5       30.11F
MCMINNVILLE    CLEAR     73  64  73 VRB3      30.11S
COLUMBIA       CLEAR     72  66  83 CALM      30.04S
SHELBYVILLE    CLEAR     70  64  83 SE5       30.08S
$$

TNZ017-018-042-046-047-291000-
NORTHEAST TENNESSEE

CITY           SKY/WX    TMP DP  RH WIND       PRES   REMARKS
TRI CITIES     PTCLDY    59  57  93 CALM      30.17S
ELIZABETHTON   PTCLDY    61  57  88 E3        30.19S
$$

TNZ012-013-036-069-073-074-291000-
CENTRAL EAST TENNESSEE

CITY           SKY/WX    TMP DP  RH WIND       PRES   REMARKS
KNOXVILLE      CLOUDY    64  60  87 CALM      30.13S
OAK RIDGE      CLOUDY    65  59  81 CALM      30.15S
DOWNTOWN KNOXV CLEAR     63  61  94 CALM      30.13S
GATLINBURG     CLEAR     61  55  82 CALM      30.14R
MORRISTOWN     PTCLDY    64  59  82 CALM      30.14S
JACKSBORO      CLEAR     63  59  88 NE6       30.17S
$$

TNZ083-085-099-291000-
SOUTHEAST TENNESSEE

CITY           SKY/WX    TMP DP  RH WIND       PRES   REMARKS
CHATTANOOGA    PTCLDY    70  64  81 CALM      30.14R
DAYTON         SUNNY     66  66 100 CALM      30.13R
$$

SKY/WX REPORTED AS FAIR MEANS FEW OR NO CLOUDS BELOW
12 THOUSAND FEET.





USA.gov is the U.S. government's official web portal to all federal, state and local government web resources and services.